Location: T. Spence Memorial Observatory
(32.7356°N, 82.2098°W)
Time: 16:53:25
(UTC-04:00)

Cosmos 2219 - Visible Passes

Search period start: 29 August 2015 00:00
Search period end: 08 September 2015 00:00
Orbit: 833 x 861 km, 71.1° (Epoch: 29 August)

Date Brightness Start Highest point End Pass type
(mag) Time Alt. Az. Time Alt. Az. Time Alt. Az.
29 Aug 5.0 21:09:38 10° NNE 21:12:21 14° NE 21:13:33 13° ENE visible
29 Aug 4.1 22:51:29 10° NNW 22:55:29 46° NW 22:55:29 46° NW visible
30 Aug 5.0 20:56:19 10° NNE 20:58:56 13° NE 21:00:41 12° ENE visible
30 Aug 3.8 22:38:04 10° NNW 22:42:37 56° NW 22:42:37 56° NW visible
31 Aug 5.1 20:43:01 10° NNE 20:45:30 13° NE 20:47:51 11° ENE visible
31 Aug 3.4 22:24:40 10° NNW 22:29:48 69° NW 22:29:48 69° NW visible
01 Sep 5.1 20:29:43 10° NNE 20:32:03 13° NE 20:34:44 10° E visible
01 Sep 3.2 22:11:15 10° NNW 22:17:01 79° WSW 22:17:03 79° WSW visible
02 Sep 5.1 20:16:25 10° NNE 20:18:38 12° NE 20:21:10 10° E visible
02 Sep 3.2 21:57:50 10° NNW 22:03:37 81° WSW 22:04:22 67° S visible
03 Sep 3.2 21:44:25 10° NNW 21:50:12 83° WSW 21:51:46 50° S visible
04 Sep 3.2 21:31:01 10° NNW 21:36:47 85° WSW 21:39:16 36° SSE visible
05 Sep 3.2 21:17:36 10° NNW 21:23:23 87° WSW 21:26:52 25° SSE visible
06 Sep 3.2 21:04:12 10° NNW 21:09:58 89° WSW 21:14:36 16° SSE visible
07 Sep 3.2 20:50:47 10° NNW 20:56:34 89° ENE 21:02:18 10° SSE visible
